(36906) = 1998 FA113 = 2000 SZ179

Discovered at Socorro on 2000-09-28 by LINEAR.

Orbit

Orbit type: Main Belt

Note: WebGL enabled browser required.

epoch2024-03-31.0
epoch JD2460400.5
perihelion date2022-06-15.49204
perihelion JD2459745.99205
argument of perihelion (°)178.69455
ascending node (°)235.25598
inclination (°)11.85846
eccentricity0.1329996
perihelion distance (AU)2.2978888
Tisserand w.r.t. Jupiter3.3
ΔV w.r.t. Earth (km/sec)10.2
semimajor axis (AU)2.6503895
mean anomaly (°)149.50456
mean daily motion (°/day)0.22842280
aphelion distance (AU)3.003
period (years)4.31
P-vector [x]0.58808409
P-vector [y]0.74018461
P-vector [z]0.32601204
Q-vector [x]-0.79097701
Q-vector [y]0.61048670
Q-vector [z]0.04075965
absolute magnitude14.22
phase slope0.15
uncertainty0
referenceE2024-H23
observations used2971
oppositions21
arc length (days)9514
first opposition used1998
last opposition used2024
residual rms (arc-secs)0.56
perturbers coarse indicatorM-v
perturbers precise indicator003Ek
first observation date used1998-03-31.0
last observation date used2024-04-17.0
computer nameMPCLINUX
JD of orbit computation2456700.250251
perihelion JD uncertainty (days)7.2146E-05
argument of perihelion uncertainty (°)2.6549E-05
ascending node uncertainty (°)1.9274E-05
inclination uncertainty (°)5.4928E-06
eccentricity uncertainty 4.7354E-08
perihelion distance uncertainty (AU)1.2524E-07
Minimum Orbit Intersection Distances (in AU)
for orbit epoch: 2460400.5, reference: E2024-H23
Mercury1.98404
Venus1.576
Earth1.3096
Mars0.79624
Jupiter2.35142
Saturn6.68655
Uranus15.6637
Neptune27.5129

Observations

2985 total observations over interval: 1998 03 31.37161 – 2024 03 21.334270
These data are available for download (format description).

Date (UT) J2000 RA J2000 Dec Magn Location Ref
1998 03 31.37161 13 31 08.90 -20 03 12.2 18.1   704 – Lincoln Laboratory ETS, New Mexico MPS 1025
1998 03 31.39261 13 31 07.90 -20 03 06.0 18.5   704 – Lincoln Laboratory ETS, New Mexico MPS 1025
1998 03 31.41347 13 31 06.94 -20 02 58.2 18.5   704 – Lincoln Laboratory ETS, New Mexico MPS 1025
1998 03 31.43442 13 31 05.96 -20 02 49.1 18.5   704 – Lincoln Laboratory ETS, New Mexico MPS 1025
1998 04 01.33350 13 30 23.91 -19 57 19.9 18.6   704 – Lincoln Laboratory ETS, New Mexico MPS 1025
1998 04 01.35384 13 30 22.95 -19 57 13.0 19.0   704 – Lincoln Laboratory ETS, New Mexico MPS 1025
1998 04 01.37435 13 30 21.98 -19 57 06.0 19.4   704 – Lincoln Laboratory ETS, New Mexico MPS 1025
1998 04 01.39460 13 30 21.05 -19 56 56.8 19.4   704 – Lincoln Laboratory ETS, New Mexico MPS 1025
1998 04 01.41492 13 30 19.75 -19 56 51.9 19.1   704 – Lincoln Laboratory ETS, New Mexico MPS 1025
1998 04 20.25291 13 14 57.08 -17 36 51.3 18.8   704 – Lincoln Laboratory ETS, New Mexico MPS 20720
1998 04 20.29312 13 14 55.05 -17 36 31.0 18.4   704 – Lincoln Laboratory ETS, New Mexico MPS 20720
1998 04 20.31319 13 14 54.19 -17 36 21.9 18.4   704 – Lincoln Laboratory ETS, New Mexico MPS 20720
1998 04 20.33333 13 14 53.10 -17 36 12.0 18.9   704 – Lincoln Laboratory ETS, New Mexico MPS 20720
1998 05 16.18848 12 59 04.84 -14 06 36.1 19.1   704 – Lincoln Laboratory ETS, New Mexico MPS 20720
1998 05 16.20805 12 59 04.36 -14 06 27.0 19.1   704 – Lincoln Laboratory ETS, New Mexico MPS 20720
1998 05 16.22757 12 59 03.91 -14 06 17.8 19.1   704 – Lincoln Laboratory ETS, New Mexico MPS 20720
1998 05 16.24710 12 59 03.45 -14 06 09.8 19.1   704 – Lincoln Laboratory ETS, New Mexico MPS 20720
1999 06 14.37024 19 19 05.86 -09 30 47.9 19.1   704 – Lincoln Laboratory ETS, New Mexico MPS 21323
1999 06 14.38221 19 19 05.38 -09 30 44.6 18.4   704 – Lincoln Laboratory ETS, New Mexico MPS 21323
1999 06 14.39417 19 19 04.79 -09 30 42.3 19.3   704 – Lincoln Laboratory ETS, New Mexico MPS 21323
1999 06 14.40614 19 19 04.32 -09 30 39.0 18.9   704 – Lincoln Laboratory ETS, New Mexico MPS 21323
2000 09 06.42143 03 27 33.12 +25 26 42.9 18.4   704 – Lincoln Laboratory ETS, New Mexico MPS 21323
2000 09 06.45089 03 27 34.42 +25 26 43.9 18.8   704 – Lincoln Laboratory ETS, New Mexico MPS 21323
2000 09 06.46453 03 27 35.04 +25 26 44.8 18.5   704 – Lincoln Laboratory ETS, New Mexico MPS 21323
2000 09 28.34761 03 37 44.79 +25 04 05.9 19.0   704 – Lincoln Laboratory ETS, New Mexico MPS 20095
2000 09 28.36329 03 37 44.91 +25 04 02.4 19.3   704 – Lincoln Laboratory ETS, New Mexico MPS 20095
2000 09 28.39487 03 37 45.10 +25 03 56.1 18.9   704 – Lincoln Laboratory ETS, New Mexico MPS 20095
2000 09 30.33501 03 37 57.22 +24 57 59.8 18.6   704 – Lincoln Laboratory ETS, New Mexico MPS 20095
2000 09 30.34972 03 37 57.34 +24 57 56.7 19.7   704 – Lincoln Laboratory ETS, New Mexico MPS 20095
2000 09 30.36503 03 37 57.26 +24 57 53.3 20.2   704 – Lincoln Laboratory ETS, New Mexico MPS 20095
2000 09 30.37974 03 37 57.36 +24 57 50.5 19.9   704 – Lincoln Laboratory ETS, New Mexico MPS 20095
2000 09 30.39540 03 37 57.36 +24 57 47.0 18.8   704 – Lincoln Laboratory ETS, New Mexico MPS 20095
2000 10 24.39652 03 30 39.44 +22 44 18.7 17.2   704 – Lincoln Laboratory ETS, New Mexico MPS 21323
2000 10 24.40999 03 30 38.85 +22 44 12.1 17.5   704 – Lincoln Laboratory ETS, New Mexico MPS 21323
2000 10 24.42340 03 30 38.32 +22 44 05.8 17.7   704 – Lincoln Laboratory ETS, New Mexico MPS 21323
2000 10 24.43683 03 30 37.79 +22 43 59.6 17.9   704 – Lincoln Laboratory ETS, New Mexico MPS 21323
2000 10 24.45027 03 30 37.22 +22 43 52.8 17.6   704 – Lincoln Laboratory ETS, New Mexico MPS 21323
2000 11 01.29930 03 24 54.04 +21 36 59.0 17.6   704 – Lincoln Laboratory ETS, New Mexico MPS 21323
2000 11 01.31360 03 24 53.35 +21 36 51.3 17.9   704 – Lincoln Laboratory ETS, New Mexico MPS 21323
2000 11 01.32784 03 24 52.63 +21 36 43.5 18.5   704 – Lincoln Laboratory ETS, New Mexico MPS 21323
2000 11 01.34241 03 24 51.90 +21 36 35.6 18.0   704 – Lincoln Laboratory ETS, New Mexico MPS 21323
2000 11 01.35672 03 24 51.18 +21 36 27.5 18.2   704 – Lincoln Laboratory ETS, New Mexico MPS 21323
2000 11 02.27530 03 24 06.94 +21 28 00.3 17.1   704 – Lincoln Laboratory ETS, New Mexico MPS 21323
2000 11 02.28885 03 24 06.23 +21 27 52.9 17.4   704 – Lincoln Laboratory ETS, New Mexico MPS 21323
2000 11 02.30248 03 24 05.54 +21 27 45.8 17.4   704 – Lincoln Laboratory ETS, New Mexico MPS 21323
2000 11 02.31603 03 24 04.84 +21 27 37.8 17.4   704 – Lincoln Laboratory ETS, New Mexico MPS 21323
2000 11 02.32959 03 24 04.16 +21 27 30.8 17.3   704 – Lincoln Laboratory ETS, New Mexico MPS 21323
2000 11 03.27693 03 23 17.76 +21 18 40.2 17.2   704 – Lincoln Laboratory ETS, New Mexico MPS 21323
2000 11 03.29054 03 23 17.04 +21 18 32.5 17.3   704 – Lincoln Laboratory ETS, New Mexico MPS 21323
2000 11 03.30417 03 23 16.34 +21 18 25.2 17.4   704 – Lincoln Laboratory ETS, New Mexico MPS 21323
2000 11 03.33139 03 23 14.93 +21 18 09.4 18.1   704 – Lincoln Laboratory ETS, New Mexico MPS 21323
2000 11 21.28877 03 07 51.64 +18 17 59.1 17.1   704 – Lincoln Laboratory ETS, New Mexico MPS 22526
2000 11 21.30340 03 07 50.87 +18 17 49.9 17.8   704 – Lincoln Laboratory ETS, New Mexico MPS 22526
2000 11 21.31800 03 07 50.12 +18 17 40.7 17.1   704 – Lincoln Laboratory ETS, New Mexico MPS 22526
2000 11 21.33262 03 07 49.36 +18 17 31.9 16.9   704 – Lincoln Laboratory ETS, New Mexico MPS 22526
2000 11 21.34722 03 07 48.59 +18 17 22.6 17.1   704 – Lincoln Laboratory ETS, New Mexico MPS 22526
2000 11 24.24884 03 05 30.61 +17 48 08.8 16.7 R 699 – Lowell Observatory-LONEOS MPS 22526
2000 11 24.27227 03 05 29.47 +17 47 54.5   699 – Lowell Observatory-LONEOS MPS 22526
2000 11 24.29580 03 05 28.31 +17 47 40.7   699 – Lowell Observatory-LONEOS MPS 22526
2000 11 24.31929 03 05 27.15 +17 47 26.5   699 – Lowell Observatory-LONEOS MPS 22526
2000 11 26.14515 03 04 04.74 +17 29 21.4 17.1 V 691 – Steward Observatory, Kitt Peak-Spacewatch MPS 22526
2000 11 26.14926 03 04 04.55 +17 29 19.0 17.1 V 691 – Steward Observatory, Kitt Peak-Spacewatch MPS 22526
2000 11 26.15419 03 04 04.32 +17 29 16.0 17.1 V 691 – Steward Observatory, Kitt Peak-Spacewatch MPS 22526
2000 11 26.22873 03 04 00.85 +17 28 32.0 17.7 V 691 – Steward Observatory, Kitt Peak-Spacewatch MPS 22526
2000 11 26.23277 03 04 00.67 +17 28 29.7 17.7 V 691 – Steward Observatory, Kitt Peak-Spacewatch MPS 22526
2000 11 26.23693 03 04 00.36 +17 28 27.6 18.8   704 – Lincoln Laboratory ETS, New Mexico MPS 22526
2000 11 26.23727 03 04 00.45 +17 28 27.0 17.8 V 691 – Steward Observatory, Kitt Peak-Spacewatch MPS 22526
2000 11 26.25171 03 03 59.74 +17 28 18.8 17.0   704 – Lincoln Laboratory ETS, New Mexico MPS 22526
2000 11 26.26651 03 03 59.06 +17 28 10.2 16.9   704 – Lincoln Laboratory ETS, New Mexico MPS 22526
2000 11 26.28130 03 03 58.37 +17 28 01.6 17.0   704 – Lincoln Laboratory ETS, New Mexico MPS 22526
2000 11 26.29626 03 03 57.72 +17 27 54.8 17.8   704 – Lincoln Laboratory ETS, New Mexico MPS 22526
2000 11 26.52435 03 03 47.93 +17 25 37.9 16.8   327 – Peking Observatory, Xinglong Station MPS 25189
2000 11 26.54015 03 03 47.21 +17 25 28.7   327 – Peking Observatory, Xinglong Station MPS 25189
2000 11 26.55601 03 03 46.42 +17 25 19.3   327 – Peking Observatory, Xinglong Station MPS 25189
2000 11 26.58807 03 03 45.00 +17 25 00.7   327 – Peking Observatory, Xinglong Station MPS 25189
2000 11 27.22103 03 03 17.45 +17 18 50.5 17.1 V 691 – Steward Observatory, Kitt Peak-Spacewatch MPS 22526
2000 11 27.25319 03 03 16.00 +17 18 32.1 17.2 V 691 – Steward Observatory, Kitt Peak-Spacewatch MPS 22526
2000 11 27.28485 03 03 14.56 +17 18 13.5 17.2 V 691 – Steward Observatory, Kitt Peak-Spacewatch MPS 22526
2000 11 27.33276 03 03 12.38 +17 17 45.7 17.1 V 691 – Steward Observatory, Kitt Peak-Spacewatch MPS 22526
2000 11 27.34674 03 03 11.75 +17 17 37.5 17.2 V 691 – Steward Observatory, Kitt Peak-Spacewatch MPS 22526
2000 11 27.36061 03 03 11.13 +17 17 29.4 17.2 V 691 – Steward Observatory, Kitt Peak-Spacewatch MPS 22526
2000 11 28.22543 03 02 34.71 +17 09 08.7 16.9   704 – Lincoln Laboratory ETS, New Mexico MPS 22526
